Regional Weather Roundup
Issued by NWS Upton, NY

Current Version | Previous Version | Text Only | Print | Product List | Glossary On
Versions: 1 2 3 4 5 6 7 8 9 10 11 12 13 14 15 16 17 18 19 20 21 22 23 24 25 26 27
000
ASUS41 KOKX 300605
RWROKX

REGIONAL WEATHER ROUNDUP
NATIONAL WEATHER SERVICE NEW YORK NY
200 AM EDT MON MAY 30 2016

NOTE: "FAIR" INDICATES FEW OR NO CLOUDS BELOW 12,000 FEET WITH NO
SIGNIFICANT WEATHER AND/OR OBSTRUCTIONS TO VISIBILITY.

NYZ071-072-176-178-NJZ106-104-300700-
NEW YORK CITY METRO AREA


CITY           SKY/WX    TMP DP  RH WIND       PRES   REMARKS
CENTRAL PARK   HVY RAIN  69  68  96 CALM      30.06F VSB 3/4
LAGUARDIA APRT HVY RAIN  70  70 100 CALM      30.02S FOG
KENNEDY INTL   LGT RAIN  65  63  93 S12       30.04F VSB 1/2
NEWARK/LIBERTY LGT RAIN  70  70 100 SW9       30.02F FOG
BRNX BOT. GARD   N/A     68  66  94 SW5       30.05R
TETERBORO      RAIN      72  68  87 S6        30.01F FOG
$$

NYZ177-179-078>081-300700-
LONG ISLAND NEW YORK

CITY           SKY/WX    TMP DP  RH WIND       PRES   REMARKS
FARMINGDALE    LGT RAIN  67  65  93 S7        30.04F FOG
ISLIP          CLOUDY    67  66  97 S7        30.04F
SHIRLEY        LGT RAIN  67  66  97 S7        30.05F FOG
RIVERHEAD        N/A     68  66  94 CALM      30.04F
WESTHAMPTON    LGT RAIN  65  64  97 S3        30.07F FOG
EAST HAMPTON   FOG       64  63  99 S3        30.07F VSB 3/4
MONTAUK POINT    N/A     64  64 100 S3        30.08F
$$

NYZ052-065-067-300700-
HUDSON VALLEY

CITY           SKY/WX    TMP DP  RH WIND       PRES   REMARKS
WHITE PLAINS   RAIN      68  67  96 CALM      30.03F FOG
NEWBURGH       LGT RAIN  70  70 100 SW6       30.04F
MONTGOMERY     RAIN      70  68  93 W3        30.02F FOG
POUGHKEEPSIE   CLOUDY    73  67  81 S3        30.01F
ALBANY         LGT RAIN  71  62  73 S12       29.98F
$$

NJZ001-105-106-008-010-013-015-019>022-104-300700-
NEW JERSEY

CITY           SKY/WX    TMP DP  RH WIND       PRES   REMARKS
NEWARK/LIBERTY LGT RAIN  70  70 100 SW9       30.02F FOG
TETERBORO      RAIN      72  68  87 S6        30.01F FOG
CALDWELL       LGT RAIN  69  65  86 CALM      30.02F
MORRISTOWN     RAIN      68  66  94 CALM      30.03F
SOMERVILLE     LGT RAIN  66  64  93 CALM      30.01F
SUSSEX         LGT RAIN  66  64  93 CALM      30.04F
ANDOVER          N/A     67  65  93 CALM      30.05S
TRENTON        LGT RAIN  68  65  90 CALM      30.02F
MILLVILLE      CLOUDY    71  70  96 S5        30.03F
ATLANTIC CITY  CLOUDY    71  70  96 S7        30.03F FOG
WRIGHTSTOWN    LGT RAIN  72  70  94 SW2       30.00F FOG
TOMS RIVER     CLOUDY    72  66  83 S7        30.04F
BELMAR         CLOUDY    71  70  96 S7        30.04F
$$

PAZ047>061-062-071-300700-
EASTERN PENNSYLVANIA

CITY           SKY/WX    TMP DP  RH WIND       PRES   REMARKS
PHILADELPHIA   LGT RAIN  70  68  93 E3        30.02F
ALLENTOWN      LGT RAIN  70  67  90 S7        30.02F
SCRANTON       LGT RAIN  68  64  87 SW6       30.04F
$$

CTZ002-004>006-009-010-012-RIZ004-006-007-MAZ004-011-015-300700-
SOUTHERN NEW ENGLAND
 IN CT

CITY           SKY/WX    TMP DP  RH WIND       PRES   REMARKS
BRADLEY INTL   LGT RAIN  69  67  93 N6        30.04F
HARTFORD       CLOUDY    72  69  90 S7        30.04F
DANBURY        LGT RAIN  69  67  93 SE6       30.05F
WTRBRY/OXFORD    N/A     66  63  88 S7        30.06F
BRIDGEPORT     CLOUDY    67  66  97 E5        30.04F FOG
MERIDEN        CLOUDY    68  66  93 S8        30.05F FOG
NEW HAVEN      LGT RAIN  64  63  96 E6        30.05F VSB 1
CHESTER        FOG       64  64 100 CALM      30.06F VSB 1/4
GROTON         CLOUDY    63  63 100 E7        30.06F FOG
WILLIMANTIC    LGT RAIN  66  62  87 E3        30.07F

 IN RI

CITY           SKY/WX    TMP DP  RH WIND       PRES   REMARKS
PROVIDENCE     RAIN      57  55  93 NE5       30.09F FOG
BLOCK ISLAND   LGT RAIN  60  60 100 CALM      30.08F VSB 1/4
WESTERLY       LGT RAIN  62  59  90 NE3       30.08F FOG

 IN MA

CITY           SKY/WX    TMP DP  RH WIND       PRES   REMARKS
BOSTON         DRIZZLE   53  52  96 NE3       30.11F FOG
WORCESTER      FOG       52  52 100 E5        30.09F VSB 1/4
WESTFIELD      LGT RAIN  63  58  83 N7        30.05F
PROVINCETOWN   CLOUDY    54  53  97 CALM      30.11F FOG
NANTUCKET      LGT RAIN  61  59  93 SE6       30.09F VSB 1/4
$$

ANZ330-335-338-340-345-350-353-355-300700-
COASTAL MARINE OBSERVATIONS


STATION/POSITION TIME  SKY/WX   TEMP    WIND        PRES    VSBY  WAVE
                                AIR SEA DIR/SP/G                  HT/PER
                 (UTC)          (F)     (DEG/KT/KT) (MB)    (MI)  (FT/S)
NY HARB ENTRANCE 0450            60 58  180/  8/ 10 1017.4          3/ 7
20S FIRE ISLAND  0450            63 62  180/ 12/ 14 1017.7          3/ 8
GREAT SOUTH BAY  0500            65 71  190/ 10/ 14   N/A
23 SSW MONTAUK P 0550            62 59  200/  8/  8 1017.4          3/ 7
15 E BARNEGAT LI 0522               61                N/A           3/ 8
HUDSON CANYON    0450            64 60              1018.6          2/ 8
KINGS POINT      0500            68 62              1017.0
EXECUTION ROCKS  NOT AVBL
CENTRAL LI SOUND 0500            64     110/  6/  8   N/A           0
EASTERN LI SOUND 0500            59 55   80/  6/  8   N/A
ROBBINS REEF     0500            68     150/  6/  7 1016.2
$$


>>>>>>>>>>>>>>>>>>>>>>>>>>>> KEY <<<<<<<<<<<<<<<<<<<<<<<<<<<
>                                                          <
>     SKY/WX - SKY CONDITION/PRESENT WEATHER               <
>     TMP    - TEMPERATURE IN FAHRENHEIT                   <
>     DP     - DEWPOINT IN FAHRENHEIT                      <
>     RH     - RELATIVE HUMIDITY IN PERCENT                <
>     WIND   - DIRECTION AND SPEED IN MPH                  <
>     PRES   - MEAN SEA LEVEL PRESSURE IN INCHES OF HG     <
>     WCI    - WIND CHILL INDEX                            <
>     VSB    - VISIBILITY IN MILES                         <
>     HX     - HEAT INDEX                                  <
>     TC     - TEMPERATURE IN CELSIUS                      <
>     VRB    - VARIABLE WIND DIRECTION                     <
>                                                          <
>>>>>>>>>>>>>>>>>>>>>>>>>>>> KEY <<<<<<<<<<<<<<<<<<<<<<<<<<<






USA.gov is the U.S. government's official web portal to all federal, state and local government web resources and services.